This is the latest recevied weather packets stored in our database for station/object ZL3GL-4. If no packets are shown the sender has not sent any weather packets the latest 1 day(s).
| Time | Temp. | Humidity | Pressure | Rain* | Wind** | Luminosity | Snow |
|---|---|---|---|---|---|---|---|
| 1778009258 | 3.33° C | 100% | 1018.7 hPa | 0 mm | 0.45 m/s, 245° | - | - |
| 1778008415 | 3.33° C | 100% | 1018.8 hPa | 0 mm | 0 m/s | - | - |
| 1778007571 | 3.33° C | 100% | 1018.8 hPa | 0 mm | 0.89 m/s, 342° | - | - |
| 1778006726 | 3.89° C | 100% | 1018.8 hPa | 0 mm | 0 m/s | - | - |
| 1778005880 | 3.89° C | 100% | 1018.9 hPa | 0 mm | 0 m/s | - | - |
| 1778005035 | 3.89° C | 100% | 1019.1 hPa | 0 mm | 0 m/s | - | - |
| 1778004189 | 3.89° C | 100% | 1019.5 hPa | 0 mm | 0.89 m/s, 158° | - | - |
| 1778003346 | 3.89° C | 100% | 1019.5 hPa | 0 mm | 0.45 m/s, 250° | - | - |
| 1778002503 | 3.89° C | 100% | 1019.6 hPa | 0 mm | 0 m/s | - | - |
| 1778001658 | 3.89° C | 100% | 1019.5 hPa | 0 mm | 0 m/s | - | - |
| 1778000814 | 3.89° C | 100% | 1019.6 hPa | 0 mm | 0.45 m/s, 330° | - | - |
| 1777999970 | 4.44° C | 100% | 1019.7 hPa | 0 mm | 1.79 m/s, 20° | - | - |
| 1777999125 | 4.44° C | 100% | 1019.9 hPa | 0 mm | 1.34 m/s, 316° | - | - |
| 1777998281 | 4.44° C | 100% | 1020.1 hPa | 0 mm | 1.34 m/s, 321° | - | - |
| 1777997441 | 4.44° C | 100% | 1020.3 hPa | 0 mm | 1.34 m/s, 335° | - | - |
| 1777996594 | 5° C | 100% | 1020.5 hPa | 0 mm | 1.79 m/s, 336° | - | - |
| 1777995750 | 5.56° C | 100% | 1020.5 hPa | 0 mm | 1.34 m/s, 318° | - | - |
| 1777994903 | 5.56° C | 100% | 1020.5 hPa | 0 mm | 0.89 m/s, 35° | - | - |
| 1777994060 | 6.11° C | 100% | 1020.9 hPa | 0 mm | 0.45 m/s, 278° | - | - |
| 1777993216 | 6.11° C | 100% | 1021 hPa | 0 mm | 0.45 m/s, 281° | - | - |
| 1777992372 | 6.11° C | 100% | 1021.4 hPa | 0 mm | 0.89 m/s, 31° | - | - |
| 1777991528 | 6.11° C | 100% | 1021.5 hPa | 0 mm | 0.45 m/s, 333° | - | - |
| 1777990686 | 6.67° C | 100% | 1021.9 hPa | 0 mm | 0.89 m/s, 281° | - | - |
| 1777989841 | 6.67° C | 100% | 1022 hPa | 0 mm | 0.45 m/s, 302° | - | - |
| 1777989001 | 6.67° C | 100% | 1022.2 hPa | 0 mm | 1.34 m/s, 335° | - | - |
* Rain latest hour (hover to see other rain measurements)
** Current wind speed in m/s (hover to see current wind gust speed)